This demonstration page uses our WeatherBlox Daily Observations layout. Learn more.

Left ArrowRight Arrow

41.12389, -100.76542

Hourly Observations for October 3, 2022

Temp ( °F °C ) Dew Point ( °F °C ) Humidity (%) Winds ( mph kmh ) Pressure ( in mb ) Visibility ( mi km ) Precip ( " mm )
12:53 am 00:53 Mostly Clear 68 20 35 1.7 30 30 SSE 13 20 30.06 1018 10 16 0.00 0.00
1:53 am 01:53 Mostly Cloudy 67 19.4 35 1.7 31 31 SSE 10 17 30.06 1018 10 16 0.00 0.00
2:53 am 02:53 Clear 65 18.3 35 1.7 33 33 SE 9 15 30.05 1018 10 16 0.00 0.00
3:53 am 03:53 Clear 64 17.8 34 1.1 32 32 SE 9 15 30.04 1017 10 16 0.00 0.00
4:53 am 04:53 Mostly Cloudy 63 17.2 34 1.1 34 34 SE 10 17 30.04 1017 10 16 0.00 0.00
5:53 am 05:53 Partly Cloudy 62 16.7 35 1.7 36 36 ESE 8 13 30.04 1017 10 16 0.00 0.00
6:53 am 06:53 Mostly Cloudy 61 16.1 35 1.7 38 38 E 8 13 30.05 1018 10 16 0.00 0.00
7:53 am 07:53 Mostly Cloudy 59 15 38 3.3 45 45 ESE 9 15 30.06 1018 10 16 0.01 0.25
8:53 am 08:53 Mostly Cloudy 61 16.1 38 3.3 42 42 SE 6 9 30.06 1018 10 16 0.00 0.00
9:53 am 09:53 Mostly Cloudy 63 17.2 39 3.9 41 41 SSE 9 15 30.07 1018 10 16 0.00 0.00
10:53 am 10:53 Cloudy 66 18.9 40 4.4 38 38 SSE 9 15 30.05 1018 10 16 0.00 0.00
11:53 am 11:53 Cloudy 69 20.6 40 4.4 34 34 SSE 8 13 30.04 1017 10 16 0.00 0.00
12:53 pm 12:53 Cloudy 69 20.6 46 7.8 44 44 SE 6 9 30.05 1018 10 16 0.01 0.13
1:53 pm 13:53 Mostly Sunny 74 23.3 42 5.6 32 32 SSW 3 6 30.04 1017 10 16 0.01 0.13
2:53 pm 14:53 Cloudy 71 21.7 47 8.3 42 42 VRB 5 7 30.03 1017 10 16 0.00 0.00
3:53 pm 15:53 Cloudy with Light Rain 66 18.9 54 12.2 65 65 N 7 11 30.04 1017 10 16 0.01 0.25
4:53 pm 16:53 Cloudy with Light Rain 66 18.9 53 11.7 63 63 N 8 13 30.04 1017 10 16 0.01 0.13
5:53 pm 17:53 Cloudy with Light Rain 62 16.7 51 10.6 67 67 NNW 13 20 30.06 1018 10 16 0.01 0.13
6:53 pm 18:53 Cloudy with Nearby Thunderstorms 60 15.6 54 12.2 80 80 N 7 11 30.05 1018 10 16 0.02 0.51
7:02 pm 19:02 Cloudy with Rain 61 16.1 55 12.8 81 81 NNW 14 22 30.03 1017 9 14 0.01 0.13
7:34 pm 19:34 Mostly Cloudy with Thunderstorms 61 16.1 55 12.8 81 81 VRB 5 7 30.02 1017 10 16 0.04 1.02
7:53 pm 19:53 Mostly Cloudy 60 15.6 55 12.8 83 83 E 3 6 30.07 1018 10 16 0.04 1.02
8:53 pm 20:53 Cloudy 60 15.6 55 12.8 83 83 E 9 15 30.07 1018 10 16 0.03 0.76
9:53 pm 21:53 Cloudy 59 15 55 12.8 87 87 E 8 13 30.07 1018 10 16 0.01 0.13
10:53 pm 22:53 Cloudy 59 15 55 12.8 87 87 NW 8 13 30.08 1019 10 16 0.00 0.00
11:53 pm 23:53 Mostly Cloudy 57 13.9 54 12.2 89 89 W 6 9 30.09 1019 10 16 0.00 0.00

Powered by AerisWeather